Regional Weather Roundup
Issued by NWS Charleston, SC

Current Version | Previous Version | Graphics & Text | Print | Product List | Glossary On
Versions: 1 2 3 4 5 6 7 8 9 10 11 12 13 14 15 16 17 18 19 20 21 22 23 24 25 26 27 28 29 30 31 32 33 34 35 36 37 38 39 40 41 42 43 44 45 46 47 48 49 50
000
ASUS42 KCHS 272111
RWRCHS

REGIONAL WEATHER ROUNDUP
NATIONAL WEATHER SERVICE CHARLESTON SC
500 PM EDT FRI MAR 27 2015

NOTE: "FAIR" INDICATES FEW OR NO CLOUDS BELOW 12,000 FEET WITH NO
SIGNIFICANT WEATHER AND/OR OBSTRUCTIONS TO VISIBILITY.

NOT ALL STATIONS ARE QUALITY CONTROLLED BY THE NATIONAL
WEATHER SERVICE. USE DATA WITH CAUTION...ESPECIALLY
DEWPOINT OBSERVATIONS.

SCZ027-030-031-034>040-042>050-272200-
...SOUTHEAST SOUTH CAROLINA...

CITY           SKY/WX    TMP DP  RH WIND       PRES   REMARKS
N CHARLESTON   HVY RAIN  55  54  94 N16       29.68R FOG
WATERFRONT PRK   N/A     64 N/A N/A SW7G13      N/A
MOUNT PLEASANT LGT RAIN  64  63  94 NW16      29.65S
PINOPOLIS        N/A     55  54  94 VRB16     29.61R
MONCKS CORNER  CLOUDY    55  52  88 N8G17     29.69R
SUMMERVILLE    CLOUDY    55  54  94 N12G23    29.70R
BEAUFORT MCAS  CLOUDY    67  59  75 W9        29.67R
BEAUFORT ARPT  CLOUDY    66  64  94 W12G18    29.67R
HILTON HEAD IS NOT AVBL
WALTERBORO     CLOUDY    57  54  88 N10       29.70R
ALLENDALE      FAIR      68  48  49 VRB7G14   29.67S

...SOUTHERN MIDLANDS AND PEE DEE...

CITY           SKY/WX    TMP DP  RH WIND       PRES   REMARKS
GEORGETOWN     NOT AVBL
KINGSTREE      NOT AVBL
ORANGEBURG     CLOUDY    54  47  77 N13       29.72R
BARNWELL       MOCLDY    63  54  72 N14G23    29.70R
AIKEN          CLOUDY    54  45  71 N13       29.77R
MANNING        HVY RAIN  52  45  76 N10G20    29.71S
COLUMBIA       CLOUDY    52  43  71 N10G21    29.75R
SUMTER         CLOUDY    50  46  87 N15       29.72R
FLORENCE       CLOUDY    51  46  83 N10       29.72R
MYRTLE BEACH   LGT RAIN  54  48  82 N14       29.68R
N MYRTLE BEACH RAIN      52  49  89 N10       29.66R FOG

$$

GAZ063-065-086>088-099>101-113>116-118-119-134>141-150-272200-
...SOUTHEAST GEORGIA...

CITY           SKY/WX    TMP DP  RH WIND       PRES   REMARKS
SAVANNAH ARPT  CLOUDY    65  52  62 W14G26    29.69R
HUNTER AAF     CLOUDY    66  58  76 W17       29.67R
FORT STEWART   CLOUDY    64  51  63 W15G23    29.69S
STATESBORO     CLOUDY    65  48  54 W14       29.71S
SYLVANIA       CLOUDY    65  51  59 NW13G22   29.70S
CLAXTON        FAIR      63  52  67 W10G16    29.72S

...CSRA...CENTRAL AND FAR SOUTHEAST GEORGIA...

CITY           SKY/WX    TMP DP  RH WIND       PRES   REMARKS
THOMSON        PTSUNNY   65  45  48 W17       29.77F
AUGUSTA-BUSH   PTSUNNY   63  42  46 W16G25    29.72R
AUGUSTA-DANIEL PTSUNNY   63  45  51 NW8       29.73R
SWAINSBORO     FAIR      64  27  24 W12G21    29.75R
VIDALIA        CLOUDY    63  46  55 W15G22    29.75R
EASTMAN        FAIR      63  43  48 W12G17    29.81S
HAZLEHURST     FAIR      63  46  55 W10G22    29.76S
ALMA           CLOUDY    62  48  60 W15       29.76S
WAYCROSS       CLOUDY    67  56  67 NW13G18   29.75F
JESUP          FAIR      64  55  72 NW14G21   29.74S
BAXLEY         FAIR      63  50  63 NW13G22   29.75S
BRUNSWICK      CLOUDY    66  59  77 W12G21    29.73R
SAINT SIMONS   CLOUDY    65  60  84 W14G22    29.72R

$$

SCZ027-028-034-036>038-045-046-048>050-GAZ119-141-272200-
...LAKE AND SUPPLEMENTAL COASTAL OBSERVATIONS...

STATION/POSITION TIME  TEMP    WIND        PRES    WAVE   SWELL
                       AIR SEA DIR/SP/G            HT/PER HT/PER/DIR
                 (UTC) (F)     (DEG/KT/KT) (MB)    (FT/S) (FT/S/D)
UPR LAKE MARION  NOT AVBL
WINYAH BAY       NOT AVBL
LAKE MURRAY      2000   51      30/  5/  7 1006.8S
ACE BASIN NERRS  NOT AVBL
FORT PULASKI     2012   65 60  250/  8/ 13 1005.3R
SAPELO ISLAND    2000   68     280/ 22     1005.0S

$$

ANZ835-935-AMZ111-154-330-350-352-354-370-450-454-472-272200-
...C-MAN AND BUOY OBSERVATIONS...

STATION/POSITION TIME  TEMP    WIND        PRES    WAVE   SWELL
                       AIR SEA DIR/SP/G            HT/PER HT/PER/DIR
                 (UTC) (F)     (DEG/KT/KT) (MB)    (FT/S) (FT/S/D)
BUOY 41004       2050   69 70  230/ 19/ 23 1002.6F   7/ 6   2/17
BUOY 41008       2050   63 61  300/ 16/ 19 1005.3R   3/ 8   2/100/ 8
FOLLY BEACH CMAN 2100   62     230/  8/ 10 1003.7F
CAPERS NEARSHORE 2000   63     250/ 17/ 21   N/A
FRIPP NEARSHORE  2000   62     270/ 14/ 16 1004.5


STATION/POSITION TIME  TEMP    WIND        PRES    WAVE   SWELL
                       AIR SEA DIR/SP/G            HT/PER HT/PER/DIR
                 (UTC) (F)     (DEG/KT/KT) (MB)    (FT/S) (FT/S/D)
5E ST. MARYS GA  2021      63                N/A     3/ 8
FRYING PAN BUOY  2050   68 66  230/ 21/ 27 1002.7F   7/ 7
BUOY 41025       NOT AVBL
CAPE LOOKOUT NC  2100   48      20/ 19/ 24 1004.5F
BUOY 41002       2050   71 69  220/ 16/ 19 1006.4F   9/ 8   7/170/ 8
BUOY 41010       2020   75 76  280/ 19/ 25 1007.7F
ST AUGUSTINE FL  2100   70 61  230/ 10/ 14 1007.3F


$$



USA.gov is the U.S. government's official web portal to all federal, state and local government web resources and services.